| time (UTC) | temp F | wind direction | speed MPH | gust MPH | rain 1hr in | rain 24hr in | rain mn in | humidity % | barometer mb |
| 20260503223625 | 84 | 7 | 5.0 | 9.0 | 0.00 | 0.00 | 0.00 | 23 | 1012.5 |
| 20260503222641 | 82 | 98 | 2.0 | 4.0 | 0.00 | 0.00 | 0.00 | 24 | 1012.7 |
| 20260503221641 | 85 | 43 | 7.0 | 10.0 | 0.00 | 0.00 | 0.00 | 22 | 1012.6 |
| 20260503220636 | 83 | 81 | 4.0 | 5.0 | 0.00 | 0.00 | 0.00 | 22 | 1012.9 |
| 20260503215654 | 84 | 19 | 7.0 | 11.0 | 0.00 | 0.00 | 0.00 | 23 | 1012.9 |
| 20260503214634 | 84 | 110 | 4.0 | 6.0 | 0.00 | 0.00 | 0.00 | 20 | 1013.2 |
| 20260503213630 | 83 | 87 | 3.0 | 4.0 | 0.00 | 0.00 | 0.00 | 21 | 1013.4 |
| 20260503212630 | 83 | 42 | 5.0 | 7.0 | 0.00 | 0.00 | 0.00 | 21 | 1013.5 |
| 20260503211628 | 83 | 15 | 1.0 | 4.0 | 0.00 | 0.00 | 0.00 | 23 | 1013.6 |
| 20260503210643 | 84 | 23 | 5.0 | 9.0 | 0.00 | 0.00 | 0.00 | 22 | 1013.7 |
| 20260503205623 | 82 | 15 | 8.0 | 11.0 | 0.00 | 0.00 | 0.00 | 24 | 1013.8 |
| 20260503204621 | 82 | 124 | 4.0 | 4.0 | 0.00 | 0.00 | 0.00 | 25 | 1014.0 |
| 20260503203641 | 82 | 33 | 2.0 | 5.0 | 0.00 | 0.00 | 0.00 | 26 | 1014.0 |
| 20260503202654 | 80 | 259 | 3.0 | 4.0 | 0.00 | 0.00 | 0.00 | 28 | 1013.9 |
| 20260503201631 | 80 | 359 | 1.0 | 2.0 | 0.00 | 0.00 | 0.00 | 28 | 1014.1 |
| 20260503200635 | 81 | 56 | 3.0 | 6.0 | 0.00 | 0.00 | 0.00 | 26 | 1014.2 |
| 20260503195632 | 78 | 259 | 0.0 | 2.0 | 0.00 | 0.00 | 0.00 | 30 | 1014.4 |
| 20260503194625 | 80 | 77 | 3.0 | 6.0 | 0.00 | 0.00 | 0.00 | 28 | 1014.5 |
| 20260503193626 | 79 | 13 | 3.0 | 5.0 | 0.00 | 0.00 | 0.00 | 30 | 1014.9 |
| 20260503192623 | 79 | 87 | 3.0 | 4.0 | 0.00 | 0.00 | 0.00 | 29 | 1014.9 |
| 20260503191640 | 79 | 230 | 1.0 | 4.0 | 0.00 | 0.00 | 0.00 | 32 | 1015.0 |
| 20260503190636 | 78 | 52 | 3.0 | 4.0 | 0.00 | 0.00 | 0.00 | 30 | 1015.0 |
| 20260503185654 | 77 | 49 | 3.0 | 7.0 | 0.00 | 0.00 | 0.00 | 33 | 1015.1 |
| 20260503184635 | 78 | 22 | 7.0 | 9.0 | 0.00 | 0.00 | 0.00 | 31 | 1015.2 |
| 20260503183649 | 77 | 61 | 4.0 | 6.0 | 0.00 | 0.00 | 0.00 | 32 | 1015.3 |
| 20260503182628 | 75 | 357 | 4.0 | 6.0 | 0.00 | 0.00 | 0.00 | 32 | 1015.4 |
| 20260503181624 | 75 | 23 | 5.0 | 6.0 | 0.00 | 0.00 | 0.00 | 34 | 1015.5 |
| 20260503180625 | 75 | 55 | 5.0 | 8.0 | 0.00 | 0.00 | 0.00 | 33 | 1015.6 |
| 20260503175640 | 74 | 66 | 3.0 | 3.0 | 0.00 | 0.00 | 0.00 | 35 | 1015.7 |
| 20260503174619 | 74 | 12 | 5.0 | 7.0 | 0.00 | 0.00 | 0.00 | 34 | 1015.7 |
| 20260503173659 | 73 | 28 | 6.0 | 9.0 | 0.00 | 0.00 | 0.00 | 37 | 1016.0 |
| 20260503172633 | 73 | 27 | 7.0 | 9.0 | 0.00 | 0.00 | 0.00 | 37 | 1016.0 |
| 20260503171655 | 71 | 12 | 6.0 | 9.0 | 0.00 | 0.00 | 0.00 | 40 | 1016.0 |
| 20260503170631 | 71 | 21 | 9.0 | 11.0 | 0.00 | 0.00 | 0.00 | 39 | 1015.9 |
| 20260503150621 | 65 | 97 | 1.0 | 2.0 | 0.00 | 0.00 | 0.00 | 45 | 1016.1 |
| 20260503130635 | 58 | 222 | 1.0 | 2.0 | 0.00 | 0.00 | 0.00 | 54 | 1015.6 |
| 20260503120133 | 60 | 252 | 2.0 | 2.0 | 0.00 | 0.00 | 0.00 | 52 | 1015.4 |
| 20260503110124 | 61 | 0.0 | 1.0 | 0.00 | 0.00 | 0.00 | 48 | 1015.6 | |
| 20260503100128 | 67 | 281 | 2.0 | 2.0 | 0.00 | 0.00 | 0.00 | 37 | 1015.3 |
| 20260503090153 | 67 | 260 | 1.0 | 2.0 | 0.00 | 0.00 | 0.00 | 40 | 1015.3 |
| 20260503081142 | 68 | 301 | 4.0 | 5.0 | 0.00 | 0.00 | 0.00 | 38 | 1015.0 |
| 20260503080119 | 69 | 293 | 2.0 | 4.0 | 0.00 | 0.00 | 0.00 | 36 | 1015.1 |
| 20260503072133 | 69 | 299 | 4.0 | 4.0 | 0.00 | 0.00 | 0.00 | 36 | 1014.9 |
| 20260503071130 | 67 | 312 | 4.0 | 4.0 | 0.00 | 0.00 | 0.00 | 39 | 1014.7 |
| 20260503070126 | 67 | 321 | 5.0 | 6.0 | 0.00 | 0.00 | 0.00 | 41 | 1014.8 |
| 20260503060132 | 69 | 295 | 4.0 | 5.0 | 0.00 | 0.00 | 0.00 | 40 | 1014.4 |
| 20260503054151 | 69 | 246 | 1.0 | 3.0 | 0.00 | 0.00 | 0.00 | 39 | 1014.4 |
| 20260503053148 | 69 | 297 | 3.0 | 4.0 | 0.00 | 0.00 | 0.00 | 40 | 1014.5 |
| 20260503052125 | 69 | 264 | 2.0 | 3.0 | 0.00 | 0.00 | 0.00 | 41 | 1014.4 |
| 20260503051120 | 71 | 248 | 2.0 | 3.0 | 0.00 | 0.00 | 0.00 | 39 | 1014.4 |
| 20260503050123 | 73 | 275 | 2.0 | 2.0 | 0.00 | 0.00 | 0.00 | 34 | 1014.5 |
| 20260503045138 | 73 | 279 | 1.0 | 2.0 | 0.00 | 0.00 | 0.00 | 34 | 1014.3 |
| 20260503044134 | 72 | 0.0 | 0.0 | 0.00 | 0.00 | 0.00 | 35 | 1014.2 | |
| 20260503043133 | 73 | 163 | 1.0 | 2.0 | 0.00 | 0.00 | 0.00 | 34 | 1014.1 |
| 20260503042134 | 73 | 172 | 0.0 | 1.0 | 0.00 | 0.00 | 0.00 | 35 | 1014.0 |
| 20260503041133 | 73 | 176 | 0.0 | 2.0 | 0.00 | 0.00 | 0.00 | 36 | 1013.8 |
| 20260503040130 | 73 | 357 | 3.0 | 4.0 | 0.00 | 0.00 | 0.00 | 37 | 1013.9 |
| 20260503035124 | 73 | 360 | 4.0 | 5.0 | 0.00 | 0.00 | 0.00 | 37 | 1013.6 |
| 20260503034135 | 75 | 13 | 4.0 | 5.0 | 0.00 | 0.00 | 0.00 | 33 | 1013.6 |
| 20260503033125 | 74 | 14 | 4.0 | 4.0 | 0.00 | 0.00 | 0.00 | 34 | 1013.4 |
| 20260503032139 | 74 | 5 | 3.0 | 5.0 | 0.00 | 0.00 | 0.00 | 35 | 1013.2 |
| 20260503031140 | 76 | 2 | 4.0 | 5.0 | 0.00 | 0.00 | 0.00 | 33 | 1013.1 |
| 20260503030132 | 77 | 6 | 5.0 | 6.0 | 0.00 | 0.00 | 0.00 | 30 | 1013.0 |
| 20260503025133 | 79 | 22 | 5.0 | 6.0 | 0.00 | 0.00 | 0.00 | 27 | 1013.0 |
| 20260503024129 | 80 | 46 | 4.0 | 5.0 | 0.00 | 0.00 | 0.00 | 25 | 1012.8 |
| 20260503023149 | 81 | 53 | 4.0 | 6.0 | 0.00 | 0.00 | 0.00 | 25 | 1012.8 |
| 20260503022134 | 82 | 43 | 6.0 | 7.0 | 0.00 | 0.00 | 0.00 | 24 | 1012.6 |
| 20260503021122 | 82 | 46 | 7.0 | 10.0 | 0.00 | 0.00 | 0.00 | 22 | 1012.7 |
| 20260503020141 | 83 | 55 | 8.0 | 12.0 | 0.00 | 0.00 | 0.00 | 22 | 1012.7 |
| 20260503015138 | 83 | 38 | 8.0 | 11.0 | 0.00 | 0.00 | 0.00 | 21 | 1012.6 |
| 20260503014135 | 84 | 30 | 9.0 | 11.0 | 0.00 | 0.00 | 0.00 | 21 | 1012.6 |
| 20260503013157 | 84 | 31 | 7.0 | 9.0 | 0.00 | 0.00 | 0.00 | 20 | 1012.6 |
| 20260503012134 | 84 | 39 | 8.0 | 12.0 | 0.00 | 0.00 | 0.00 | 20 | 1012.6 |
| 20260503011128 | 85 | 43 | 6.0 | 6.0 | 0.00 | 0.00 | 0.00 | 21 | 1012.8 |
| 20260503010130 | 85 | 30 | 8.0 | 13.0 | 0.00 | 0.00 | 0.00 | 21 | 1013.0 |
| 20260503005124 | 85 | 47 | 6.0 | 9.0 | 0.00 | 0.00 | 0.00 | 20 | 1012.8 |
| 20260503004146 | 85 | 38 | 9.0 | 13.0 | 0.00 | 0.00 | 0.00 | 21 | 1013.0 |
| 20260503003117 | 85 | 21 | 10.0 | 17.0 | 0.00 | 0.00 | 0.00 | 21 | 1013.0 |
| 20260503002137 | 85 | 32 | 11.0 | 13.0 | 0.00 | 0.00 | 0.00 | 22 | 1012.9 |
| 20260503001139 | 85 | 111 | 4.0 | 7.0 | 0.00 | 0.00 | 0.00 | 22 | 1012.9 |
| 20260503000139 | 84 | 23 | 5.0 | 6.0 | 0.00 | 0.00 | 0.00 | 22 | 1012.9 |
| 20260502235130 | 85 | 76 | 5.0 | 6.0 | 0.00 | 0.00 | 0.00 | 22 | 1013.1 |
| 20260502234128 | 85 | 34 | 8.0 | 13.0 | 0.00 | 0.00 | 0.00 | 24 | 1013.1 |
| 20260502233148 | 85 | 40 | 6.0 | 9.0 | 0.00 | 0.00 | 0.00 | 24 | 1013.3 |
| 20260502232124 | 84 | 67 | 5.0 | 7.0 | 0.00 | 0.00 | 0.00 | 25 | 1013.5 |
| 20260502231121 | 85 | 58 | 3.0 | 5.0 | 0.00 | 0.00 | 0.00 | 24 | 1013.4 |
| 20260502230144 | 85 | 29 | 10.0 | 13.0 | 0.00 | 0.00 | 0.00 | 24 | 1013.5 |
| 20260502225137 | 85 | 18 | 9.0 | 12.0 | 0.00 | 0.00 | 0.00 | 25 | 1013.7 |
| 20260502224155 | 84 | 53 | 7.0 | 10.0 | 0.00 | 0.00 | 0.00 | 26 | 1013.8 |